Location: Clanezzo
(45.7500°N, 9.6000°E)
Time: 02:58:20
(UTC+00:00)

Cosmos 2278 Rocket - Pass Details

Date: 12 May 2021
Orbit: 841 x 845 km, 71.0° (Epoch: 18 June)

Event Time Altitude Azimuth Distance (km) Brightness Sun altitude
Rises 20:01:55 0° 190° (S) 3,383 5.0 -12.1°
Reaches altitude 10° 20:04:23 10° 186° (S) 2,452 4.3 -12.4°
Maximum altitude 20:09:51 54° 110° (ESE) 1,014 2.3 -13.1°
Drops below altitude 10° 20:15:21 10° 34° (NE) 2,468 4.8 -13.7°
Sets 20:17:50 0° 30° (NNE) 3,407 5.6 -14.0°
